HST 1 20580U 90037B 25126.81996045 .00007392 00000-0 28065-3 0 9997 2 20580 28.4683 325.2271 0002330 0.9987 359.0612 15.24864454726364 ISS (ZARYA) 1 25544U 98067A 25127.18846187 .00009102 00000-0 17086-3 0 9997 2 25544 51.6346 150.1483 0002326 85.5682 274.5572 15.49388906508802 CXO 1 25867U 99040B 25129.76795735 .00000570 00000-0 00000+0 0 9999 2 25867 48.6962 131.5006 8481473 308.9436 359.8594 0.37812153 26954